Regional Weather Roundup
Issued by NWS

Home | Current Version | Previous Version | Graphics & Text | Print | Product List | Glossary On
Versions: 1 2 3 4 5 6 7 8 9 10 11 12 13 14 15 16 17 18 19 20 21 22 23 24 25 26 27 28 29 30 31 32 33 34 35 36 37 38 39 40 41 42 43 44 45 46 47 48 49 50
000
ASUS45 KPSR 210310
RWRAZ

ARIZONA REGIONAL HOURLY WEATHER ROUNDUP
NATIONAL WEATHER SERVICE PHOENIX AZ
800 PM MST MON APR 20 2015

NOTE: FAIR INDICATES FEW OR NO CLOUDS BELOW 12,000 FEET WITH NO
SIGNIFICANT WEATHER AND/OR OBSTRUCTIONS TO VISIBILITY.

AZZ001>003-036-210400-
NORTHWEST ARIZONA

CITY           SKY/WX    TMP DP  RH WIND       PRES   REMARKS
BULLHEAD CITY  CLEAR     86  16   7 S10       29.68R
KINGMAN        CLEAR     64  14  14 S9        29.83R
$$

AZZ004>008-015-016-018-210400-
NORTH CENTRAL ARIZONA

CITY           SKY/WX    TMP DP  RH WIND       PRES   REMARKS
GRAND CANYON   PTCLDY    42  16  34 CALM      30.00R
WILLIAMS       MOCLDY    54  19  26 SW6       30.08R
PRESCOTT       CLEAR     63  16  16 SW7       29.93R
FLAGSTAFF      PTCLDY    45  21  38 CALM      30.03R
PAYSON         PTCLDY    64  14  14 SW6       29.96R
PAGE           PTCLDY    72  11   9 W5        29.82R
$$

AZZ009>014-017-210400-
NORTHEAST ARIZONA

CITY           SKY/WX    TMP DP  RH WIND       PRES   REMARKS
WINSLOW        MOCLDY    65  23  20 W12       29.93R
SAINT JOHNS    PTCLDY    60  19  20 W7        29.95R
WINDOW ROCK    MOCLDY    55  18  23 CALM      30.00R
SHOW LOW       PTCLDY    54  16  22 CALM      30.01R
$$

AZZ023-210400-
GREATER PHOENIX AREA

CITY           SKY/WX    TMP DP  RH WIND       PRES   REMARKS
PHOENIX        PTCLDY    88  18   7 W9        29.70R
BUCKEYE        CLEAR     77  21  12 W6        29.72R
GLENDALE       PTCLDY    82  25  12 CALM      29.72R
LUKE AFB       CLEAR     81  26  13 W6        29.70R
DEER VALLEY    CLEAR     81  15   8 SW5       29.72R
SCOTTSDALE     CLEAR     83  20   9 CALM      29.74R
MESA-FALCON    PTCLDY    82  21  10 W7        29.72R
MESA-GATEWAY   CLEAR     82  21  10 NW3       29.73R
CHANDLER       CLEAR     84  21  10 W8        29.71R
$$

AZZ027-028-210400-
SOUTHWEST MARICOPA COUNTY AND PINAL COUNTY

CITY           SKY/WX    TMP DP  RH WIND       PRES   REMARKS
CASA GRANDE    CLEAR     79  21  11 W8        29.72R
GILA BEND      CLEAR     82  22  11 W10       29.72R
$$

AZZ503-504-507>509-210400-
SOUTHEAST ARIZONA

CITY           SKY/WX    TMP DP  RH WIND       PRES   REMARKS
TUCSON         MOCLDY    80  15   8 SW10      29.82R
DAVIS-MONTHAN  PTCLDY    79  19  10 SW9       29.81R
RYAN FIELD       N/A     81  21  11 SW8       29.80R
NOGALES        CLEAR     66  16  14 SE6       29.91R
SIERRA VISTA   MOCLDY    68  14  12 SW12      29.93R
DOUGLAS        PTCLDY    64  21  19 SW9       29.91R
SAFFORD        PTCLDY    72  19  13 NW3       29.79R
$$

AZZ020-021-025-026-031-210400-
SOUTHWEST ARIZONA

CITY           SKY/WX    TMP DP  RH WIND       PRES   REMARKS
YUMA           PTCLDY    79  29  16 S8        29.70R
$$

CAZ031-033-041-043-047-048-061-210400-
SOUTHERN CALIFORNIA

CITY           SKY/WX    TMP DP  RH WIND       PRES   REMARKS
DOWNTOWN L.A.  CLEAR     60  52  74 W3        29.86R
L.A. AIRPORT   PTCLDY    58  52  80 W9        29.87R
SAN DIEGO      MOCLDY    62  50  64 SW6       29.90R
BURBANK        CLEAR     60  50  69 S8        29.85R
ONTARIO        CLEAR     61  48  62 W13       29.85R
RIVERSIDE      CLEAR     62  48  60 W9        29.85R
PALM SPRINGS   CLEAR     81  44  27 NW15G24   29.70R
EL CENTRO NAS  PTCLDY    80  34  19 S14       29.70R
IMPERIAL       CLEAR     82  33  17 S9        29.67R
BLYTHE         CLEAR     83  30  14 S12       29.69R
NEEDLES        CLEAR     87  11   6 SW10      29.69R
$$

NVZ020-UTZ003-210400-
SOUTHERN NEVADA-UTAH

CITY           SKY/WX    TMP DP  RH WIND       PRES   REMARKS
LAS VEGAS      PTCLDY    82  15   8 S10       29.68R
SALT LAKE CITY CLEAR     59  30  33 CALM      29.87R
$$

NMZ009-TXZ055-210400-
NEW MEXICO-WEST TEXAS

CITY           SKY/WX    TMP DP  RH WIND       PRES   REMARKS
ALBUQUERQUE    MOCLDY    64  23  21 SW5       29.94R
EL PASO        PTCLDY    75  19  12 W7        29.86R
$$


........................KEY........................
SKY/WX - SKY CONDITION/WEATHER
TMP    - TEMPERATURE IN FAHRENHEIT
DP     - DEW POINT IN FAHRENHEIT
RH     - RELATIVE HUMIDITY IN PERCENT
WIND   - DIRECTION AND SPEED IN MILES PER HOUR (MPH)
VRB    - VARIABLE WIND DIRECTION
PRES   - MEAN SEA LEVEL PRESSURE IN INCHES OF MERCURY
         F - FALLING PRESSURE   R - RISING PRESSURE
         S - STEADY PRESSURE
VSB    - VISIBILITY IN MILES
HX     - HEAT INDEX IN FAHRENHEIT
WCI    - WIND CHILL INDEX IN FAHRENHEIT
TC     - TEMPERATURE IN CELSIUS WHICH IS ALSO KNOWN AS
         TEMPERATURE IN CENTIGRADE
AFB    - AIR FORCE BASE
         LUKE AFB IS LUKE AIR FORCE BASE
         DAVIS-MONTHAN IS DAVIS-MONTHAN AIR FORCE BASE
NAS    - NAVAL AIR STATION
         EL CENTRO NAS IS EL CENTRO NAVAL AIR STATION
N/A    - NOT AVAILABLE



USA.gov is the U.S. government's official web portal to all federal, state and local government web resources and services.